Change the Weather History Date:

Tuesday, March 26, 2013

  Actual Average (KHSV) Record (KHSV)
Temperature  
Mean Temperature 36 °F 56 °F  
Max Temperature 39 °F 68 °F 88 °F (2007)
Min Temperature 32 °F 44 °F 20 °F (1955)
Degree Days  
Heating Degree Days 30 9  
Month to date heating degree days 325  
Since 1 July heating degree days 2777  
Cooling Degree Days 0 1  
Month to date cooling degree days 4  
Year to date cooling degree days 5  
Moisture  
Dew Point 25 °F    
Average Humidity 69    
Maximum Humidity 81    
Minimum Humidity 52    
Precipitation  
Precipitation 0.00 in 0.18 in 2.09 in (2011)
Month to date precipitation 4.36  
Year to date precipitation 14.09  
Snow  
Snow 0.00 in - - ()
Month to date snowfall  
Since 1 July snowfall  
Snow Depth -    
Sea Level Pressure  
Sea Level Pressure 30.24 in    
Wind  
Wind Speed 8 mph (NW)    
Max Wind Speed 18 mph    
Max Gust Speed 24 mph    
Visibility 10 miles    
Events Snow    
T = Trace of Precipitation, MM = Missing Value Source: NWS Daily Summary

Daily Weather History Graph

Daily Weather History Graph

Search for Another Location

Airport or City:

Trip Planner

Search our weather history database for the weather conditions in past years. The results will help you decide how hot, cold, wet, or windy it might be!

Date:

Astronomy

Mar. 26, 2013 Rise Set
Actual Time 6:41 AM CDT 7:02 PM CDT
Civil Twilight 6:15 AM CDT 7:28 PM CDT
Nautical Twilight 5:46 AM CDT 7:57 PM CDT
Astronomical Twilight 5:16 AM CDT 8:28 PM CDT
Moon 6:38 PM CDT (3/26) 5:56 AM CDT (3/26)
Length of Visible Light 13h 12m
Length of Day
12h 21m
Waxing Gibbous, 99% of the Moon is Illuminated
Mar 26
Waxing Gibbous
Mar 27
Full
Apr 2
Last Quarter
Apr 10
New
Apr 18
First Quarter

Hourly Weather History & Observations

Time (CDT) Temp. Windchill Dew Point Humidity Pressure Visibility Wind Dir Wind Speed Gust Speed Precip Events Conditions
12:15 AM 32.0 °F 24.8 °F 24.8 °F 75% 30.14 in 10.0 mi WNW 8.1 mph - N/A   Mostly Cloudy
12:35 AM 32.0 °F 24.2 °F 24.8 °F 75% 30.14 in 10.0 mi West 9.2 mph - N/A   Scattered Clouds
12:55 AM 32.0 °F 25.6 °F 24.8 °F 75% 30.15 in 10.0 mi West 6.9 mph - N/A   Scattered Clouds
1:15 AM 32.0 °F 24.8 °F 24.8 °F 75% 30.15 in 10.0 mi WNW 8.1 mph - N/A   Mostly Cloudy
1:35 AM 32.0 °F 23.0 °F 24.8 °F 75% 30.14 in 7.0 mi WNW 11.5 mph - N/A Snow Light Snow
1:55 AM 32.0 °F 25.6 °F 24.8 °F 75% 30.14 in 10.0 mi WNW 6.9 mph - N/A   Mostly Cloudy
2:15 AM 32.0 °F 24.8 °F 26.6 °F 80% 30.14 in 7.0 mi WNW 8.1 mph - N/A Snow Light Snow
2:35 AM 32.0 °F 24.8 °F 26.6 °F 80% 30.14 in 5.0 mi WNW 8.1 mph - N/A Snow Light Snow
2:55 AM 32.0 °F 26.4 °F 26.6 °F 80% 30.14 in 7.0 mi WNW 5.8 mph - N/A Snow Light Snow
3:15 AM 32.0 °F 26.4 °F 26.6 °F 80% 30.14 in 10.0 mi WNW 5.8 mph - N/A   Overcast
3:35 AM 32.0 °F 24.8 °F 24.8 °F 75% 30.13 in 10.0 mi WNW 8.1 mph - N/A   Overcast
3:55 AM 32.0 °F 24.2 °F 24.8 °F 75% 30.13 in 10.0 mi WNW 9.2 mph - N/A   Overcast
4:15 AM 32.0 °F 24.8 °F 24.8 °F 75% 30.13 in 10.0 mi WNW 8.1 mph - N/A   Overcast
4:35 AM 32.0 °F 23.0 °F 24.8 °F 75% 30.14 in 10.0 mi NW 11.5 mph - N/A   Overcast
4:55 AM 32.0 °F 23.0 °F 24.8 °F 75% 30.14 in 10.0 mi NW 11.5 mph - N/A   Overcast
5:15 AM 32.0 °F 23.6 °F 24.8 °F 75% 30.14 in 10.0 mi WNW 10.4 mph - N/A   Overcast
5:35 AM 32.0 °F 23.6 °F 23.0 °F 69% 30.15 in 10.0 mi NW 10.4 mph - N/A   Overcast
5:55 AM 32.0 °F 26.4 °F 24.8 °F 75% 30.15 in 10.0 mi WNW 5.8 mph - N/A   Overcast
6:15 AM 32.0 °F 24.8 °F 24.8 °F 75% 30.16 in 10.0 mi WNW 8.1 mph - N/A   Overcast
6:35 AM 32.0 °F 23.6 °F 24.8 °F 75% 30.17 in 10.0 mi NW 10.4 mph 16.1 mph N/A   Overcast
6:55 AM 32.0 °F 23.6 °F 24.8 °F 75% 30.18 in 10.0 mi WNW 10.4 mph 17.3 mph N/A   Overcast
7:15 AM 32.0 °F 24.8 °F 24.8 °F 75% 30.19 in 10.0 mi WNW 8.1 mph - N/A   Overcast
7:35 AM 32.0 °F 24.2 °F 24.8 °F 75% 30.19 in 10.0 mi WNW 9.2 mph - N/A   Overcast
7:55 AM 32.0 °F 23.6 °F 26.6 °F 80% 30.20 in 10.0 mi NW 10.4 mph - N/A   Overcast
8:15 AM 32.0 °F 24.2 °F 26.6 °F 80% 30.21 in 10.0 mi NW 9.2 mph - N/A   Overcast
8:35 AM 33.8 °F 26.4 °F 26.6 °F 75% 30.22 in 10.0 mi NW 9.2 mph - N/A   Mostly Cloudy
8:55 AM 33.8 °F 25.8 °F 26.6 °F 75% 30.22 in 10.0 mi WNW 10.4 mph - N/A Snow Light Snow
9:15 AM 33.8 °F 26.4 °F 26.6 °F 75% 30.23 in 4.0 mi WNW 9.2 mph - N/A Snow Light Snow
9:35 AM 33.8 °F 26.4 °F 26.6 °F 75% 30.23 in 10.0 mi NW 9.2 mph - N/A   Overcast
9:55 AM 33.8 °F 26.4 °F 26.6 °F 75% 30.24 in 10.0 mi NW 9.2 mph - N/A   Overcast
10:15 AM 33.8 °F 26.4 °F 26.6 °F 75% 30.25 in 7.0 mi NW 9.2 mph - N/A   Overcast
10:35 AM 33.8 °F 27.7 °F 26.6 °F 75% 30.25 in 10.0 mi WNW 6.9 mph - N/A   Overcast
10:55 AM 33.8 °F 24.3 °F 24.8 °F 70% 30.26 in 10.0 mi WNW 13.8 mph - N/A   Overcast
11:15 AM 35.6 °F 27.1 °F 24.8 °F 65% 30.27 in 10.0 mi NW 12.7 mph - N/A   Overcast
11:35 AM 37.4 °F 29.8 °F 24.8 °F 60% 30.27 in 10.0 mi NW 11.5 mph 16.1 mph N/A   Overcast
11:55 AM 35.6 °F 26.2 °F 24.8 °F 65% 30.27 in 10.0 mi NW 15.0 mph 19.6 mph N/A   Overcast
12:15 PM 37.4 °F 27.5 °F 26.6 °F 65% 30.28 in 10.0 mi WNW 18.4 mph 24.2 mph N/A   Overcast
12:35 PM 35.6 °F 28.6 °F 26.6 °F 70% 30.27 in 10.0 mi WNW 9.2 mph - N/A   Overcast
12:55 PM 35.6 °F 28.0 °F 26.6 °F 70% 30.27 in 10.0 mi NW 10.4 mph - N/A   Mostly Cloudy
1:15 PM 39.2 °F 32.0 °F 26.6 °F 61% 30.28 in 10.0 mi West 11.5 mph 18.4 mph N/A   Mostly Cloudy
1:35 PM 37.4 °F 31.4 °F 24.8 °F 60% 30.28 in 10.0 mi NW 8.1 mph 17.3 mph N/A   Overcast
1:55 PM 37.4 °F 28.9 °F 23.0 °F 56% 30.28 in 10.0 mi WNW 13.8 mph - N/A   Overcast
2:15 PM 37.4 °F 29.3 °F 23.0 °F 56% 30.28 in 10.0 mi NW 12.7 mph 18.4 mph N/A   Overcast
2:35 PM 37.4 °F 28.9 °F 23.0 °F 56% 30.28 in 10.0 mi NW 13.8 mph - N/A   Overcast
2:55 PM 37.4 °F 30.3 °F 23.0 °F 56% 30.28 in 10.0 mi NW 10.4 mph - N/A   Overcast
3:15 PM 37.4 °F 29.3 °F 23.0 °F 56% 30.28 in 10.0 mi NW 12.7 mph 16.1 mph N/A   Overcast
3:35 PM 37.4 °F 30.3 °F 23.0 °F 56% 30.28 in 10.0 mi NW 10.4 mph - N/A   Overcast
3:55 PM 37.4 °F 28.9 °F 23.0 °F 56% 30.28 in 10.0 mi NW 13.8 mph 18.4 mph N/A   Overcast
4:15 PM 37.4 °F 30.8 °F 23.0 °F 56% 30.28 in 10.0 mi NNW 9.2 mph - N/A   Overcast
4:35 PM 37.4 °F 29.8 °F 23.0 °F 56% 30.28 in 10.0 mi North 11.5 mph - N/A   Overcast
4:55 PM 39.2 °F 31.6 °F 23.0 °F 52% 30.28 in 10.0 mi NNW 12.7 mph 16.1 mph N/A   Overcast
5:15 PM 39.2 °F 33.0 °F 23.0 °F 52% 30.28 in 10.0 mi NW 9.2 mph 17.3 mph N/A   Overcast
5:35 PM 39.2 °F 31.6 °F 23.0 °F 52% 30.29 in 10.0 mi North 12.7 mph - N/A   Overcast
5:55 PM 37.4 °F 31.4 °F 23.0 °F 56% 30.29 in 10.0 mi North 8.1 mph - N/A   Overcast
6:15 PM 37.4 °F 31.4 °F 23.0 °F 56% 30.30 in 10.0 mi NNW 8.1 mph - N/A   Overcast
6:35 PM 37.4 °F 31.4 °F 23.0 °F 56% 30.30 in 10.0 mi NNW 8.1 mph - N/A   Overcast
6:55 PM 35.6 °F 29.9 °F 23.0 °F 60% 30.30 in 10.0 mi NNW 6.9 mph - N/A   Overcast
7:15 PM 35.6 °F 32.8 °F 23.0 °F 60% 30.30 in 10.0 mi NNW 3.5 mph - N/A   Overcast
7:35 PM 35.6 °F 32.8 °F 24.8 °F 65% 30.31 in 10.0 mi NNW 3.5 mph - N/A   Overcast
7:55 PM 35.6 °F - 24.8 °F 65% 30.32 in 10.0 mi Calm Calm - N/A   Overcast
8:15 PM 35.6 °F - 24.8 °F 65% 30.32 in 10.0 mi Calm Calm - N/A   Mostly Cloudy
8:35 PM 33.8 °F - 26.6 °F 75% 30.33 in 10.0 mi Calm Calm - N/A   Mostly Cloudy
8:55 PM 35.6 °F - 26.6 °F 70% 30.33 in 10.0 mi Calm Calm - N/A   Overcast
9:15 PM 33.8 °F - 26.6 °F 75% 30.34 in 10.0 mi Calm Calm - N/A   Overcast
9:35 PM 35.6 °F - 26.6 °F 70% 30.34 in 10.0 mi Calm Calm - N/A   Overcast
9:55 PM 35.6 °F - 26.6 °F 70% 30.34 in 10.0 mi Calm Calm - N/A   Overcast
10:15 PM 35.6 °F - 28.4 °F 75% 30.35 in 10.0 mi Calm Calm - N/A   Overcast
10:35 PM 33.8 °F - 28.4 °F 81% 30.35 in 10.0 mi Calm Calm - N/A   Overcast
10:55 PM 35.6 °F - 28.4 °F 75% 30.35 in 10.0 mi Calm Calm - N/A   Overcast
11:15 PM 35.6 °F - 28.4 °F 75% 30.34 in 10.0 mi Calm Calm - N/A   Overcast
11:35 PM 35.6 °F - 26.6 °F 70% 30.34 in 10.0 mi Calm Calm - N/A   Overcast
11:55 PM 33.8 °F - 28.4 °F 81% 30.34 in 10.0 mi Calm Calm - N/A   Overcast